[[{"header":{"parameterUnit":"m.s-1","parameterCategory":1,"la1":30.2991,"la2":30.254,"lo1":-89.0895,"lo2":-89.0444,"dy":0.0017,"dx":0.0017,"nx":28,"ny":28,"refTime":"2023-10-11T09:00:00:Z","depth":0,"parameterNumber":2,"parameterNumberName":"U-component_of_WINDS"},"data":[0,0,0,0,0,0,0,0,0,0,0,0,0,0,0,0,0,0,0,0,0,0,0,0,0,0,0,0,0,0,0,0,0,0,0,0,0,0,0,0,0,0,0,0,0,0,0,0,0,0,0,0,0,0,0,0,0,0,-3.0988,-3.0988,0,-3.0945,-3.0944,-3.0944,-3.0827,-3.0825,-3.0822,-3.082,-3.0778,-3.0779,-3.078,0,0,0,0,0,0,0,0,0,0,0,0,0,-3.0972,-3.0973,-3.0988,-3.0987,-3.0987,-3.0945,-3.0944,-3.0943,-3.0828,-3.0824,-3.0821,-3.0819,-3.0777,-3.0779,-3.078,0,0,0,0,0,0,0,0,0,0,0,0,0,-3.0959,-3.0973,-3.0988,-3.0924,-3.0918,-3.0945,-3.0944,-3.0943,-3.0828,-3.0824,-3.0821,-3.0817,-3.0777,-3.0779,-3.078,-3.0867,0,0,-3.0786,-3.0787,0,0,0,0,0,0,0,0,-3.096,-3.096,-3.0934,-3.0928,-3.0921,-3.0887,-3.0923,-3.0918,-3.0829,-3.0862,-3.082,-3.0815,-3.0817,-3.0816,-3.0816,-3.0865,-3.0863,-3.0786,-3.0787,-3.0788,-3.0789,0,0,0,0,0,0,0,-3.0961,-3.0961,-3.0971,-3.0934,-3.0926,-3.0898,-3.0892,-3.0921,-3.0862,-3.0859,-3.085,-3.0847,-3.0813,-3.0814,-3.0814,-3.0863,-3.0786,-3.0788,-3.0789,-3.079,-3.098,-3.0983,0,0,0,0,0,0,-3.0971,-3.0963,-3.0972,-3.097,-3.0932,-3.0901,-3.0894,-3.0902,-3.0861,-3.0851,-3.085,-3.0842,-3.0813,-3.0812,-3.0812,-3.0909,-3.0788,-3.079,-3.0791,-3.0976,-3.098,-3.0985,0,0,0,0,0,0,-3.0971,-3.0973,-3.0974,-3.0964,-3.0962,-3.0905,-3.0915,-3.0903,-3.0904,-3.0854,-3.0843,-3.0862,-3.081,-3.081,-3.0854,-3.0907,-3.0791,-3.0792,-3.0971,-3.0977,-3.0983,-3.1106,0,0,0,0,0,0,-3.0971,-3.0974,-3.1006,-3.0965,-3.0963,-3.1016,-3.0918,-3.0905,-3.0907,-3.0896,-3.0862,-3.0853,-3.0807,-3.0852,-3.0856,-3.0907,-3.0794,-3.0966,-3.0974,-3.0981,-3.1097,-3.1116,-3.1132,0,0,0,0,0,-3.0971,-3.1043,-3.1008,-3.101,-3.1001,-3.102,-3.1018,-3.0963,-3.0912,-3.0944,-3.0912,-3.0854,-3.0901,-3.0857,-3.0861,-3.0913,-3.0962,-3.0972,-3.098,-3.109,-3.1112,-3.1131,0,0,0,0,0,0,-3.1092,-3.1037,-3.0997,-3.1058,-3.1044,-3.1,-3.1038,-3.0989,-3.099,-3.0979,-3.0911,-3.0905,-3.0958,-3.094,-3.0893,-3.0994,-3.0922,-3.0932,-3.1004,-3.1025,-3.1042,-3.1045,-3.0795,0,0,0,0,0,-3.1126,-3.1144,-3.1095,-3.1154,-3.1149,-3.1095,-3.1101,-3.106,-3.1043,-3.1037,-3.1008,-3.0994,-3.1005,-3.1014,-3.1022,-3.1094,-3.1085,-3.1132,-3.115,-3.1164,-3.1173,-3.1209,-3.1229,-3.1014,-3.1014,-3.1014,0,0,-3.1196,-3.1168,-3.1184,-3.1177,-3.1162,-3.1183,-3.1091,-3.1118,-3.1133,-3.1041,-3.108,-3.1059,-3.1039,-3.1098,-3.1122,-3.1085,-3.123,-3.1175,-3.1187,-3.1188,-3.122,-3.124,-3.1259,-3.102,-3.1019,-3.1018,0,0,-3.1334,-3.1315,-3.1361,-3.1347,-3.1324,-3.1288,-3.1299,-3.1262,-3.1244,-3.1282,-3.1213,-3.1231,-3.1252,-3.124,-3.1238,-3.1371,-3.1318,-3.1376,-3.1465,-3.1501,-3.1518,-3.1532,-3.1579,-3.1596,-3.1385,-3.1386,-3.1386,0,-3.1424,-3.1452,-3.1391,-3.1422,-3.1421,-3.1338,-3.1384,-3.1374,-3.1355,-3.1357,-3.1315,-3.1339,-3.132,-3.1374,-3.1406,-3.1407,-3.1418,-3.1379,-3.152,-3.1534,-3.1547,-3.159,-3.1608,-3.1393,-3.1392,-3.1391,-3.139,0,-3.1563,-3.1584,-3.1624,-3.1607,-3.1611,-3.165,-3.1595,-3.1606,-3.1564,-3.1533,-3.1572,-3.1547,-3.1548,-3.1558,-3.1518,-3.1606,-3.1583,-3.1532,-3.1457,-3.1575,-3.1615,-3.1632,-3.1403,-3.14,-3.1398,-3.1396,0,0,-3.1776,-3.1724,-3.174,-3.173,-3.1699,-3.1714,-3.1749,-3.1749,-3.1759,-3.175,-3.1777,-3.1796,-3.1748,-3.1745,-3.1703,-3.1735,-3.1841,-3.1679,-3.1678,-3.1709,-3.1935,-3.1973,-3.1994,-3.1806,-3.1809,-3.1811,-3.1936,0,-3.1905,-3.196,-3.1906,-3.1973,-3.1991,-3.1912,-3.1942,-3.1927,-3.1898,-3.191,-3.1878,-3.1893,-3.1829,-3.1826,-3.1854,-3.1822,-3.1885,-3.1813,-3.183,-3.1832,-3.1836,-3.2015,-3.2055,-3.2174,-3.1952,-3.1954,-3.1956,0,-3.2063,-3.2059,-3.2127,-3.209,-3.2096,-3.2124,-3.2118,-3.2131,-3.2112,-3.2088,-3.2085,-3.2034,-3.2065,-3.1994,-3.2036,-3.1988,-3.1992,-3.1978,-3.1981,-3.198,-3.1901,-3.2017,-3.2211,-3.2229,-3.198,-3.1979,-3.1977,0,-3.221,-3.2222,-3.2263,-3.2258,-3.2217,-3.2238,-3.2222,-3.2199,-3.2202,-3.2198,-3.2199,-3.2199,-3.22,-3.2201,-3.2151,-3.2104,-3.22,-3.2124,-3.2182,-3.2183,-3.2205,-3.2204,-3.2401,-3.221,-3.221,-3.2209,-3.2209,0,-3.2359,-3.2404,-3.2329,-3.2354,-3.2402,-3.2339,-3.2388,-3.2364,-3.2344,-3.2364,-3.2297,-3.2317,-3.2251,-3.2264,-3.2226,-3.2266,-3.2267,-3.2249,-3.2239,-3.2255,-3.2257,-3.2256,-3.2246,-3.2214,-3.2213,-3.2212,-3.2211,0,-3.2531,-3.2483,-3.2523,-3.248,-3.247,-3.2507,-3.247,-3.2492,-3.2459,-3.2485,-3.2488,-3.2436,-3.2448,-3.2399,-3.2403,-3.2377,-3.2437,-3.2413,-3.2444,-3.2436,-3.2495,-3.249,-3.2698,-3.2722,-3.2517,-3.2519,-3.2521,0,-3.2629,-3.2661,-3.2621,-3.2629,-3.2616,-3.263,-3.2632,-3.2572,-3.2577,-3.2557,-3.2582,-3.2588,-3.259,-3.2613,-3.2576,-3.2579,-3.2554,-3.2626,-3.2554,-3.2569,-3.2553,-3.2552,-3.2554,-3.2641,-3.2644,-3.2646,-3.2648,0,-3.2807,-3.2782,-3.2787,-3.2784,-3.2788,-3.2783,-3.2774,-3.2784,-3.272,-3.2729,-3.274,-3.2741,-3.2745,-3.2752,-3.2747,-3.273,-3.2679,-3.2671,-3.2684,-3.27,-3.2716,-3.2707,-3.2484,-3.2666,-3.2664,-3.2663,-3.2662,-3.2661,-3.2944,-3.2968,-3.2944,-3.2952,-3.2938,-3.2931,-3.2949,-3.2917,-3.2925,-3.2922,-3.2887,-3.2905,-3.2884,-3.2872,-3.2861,-3.2874,-3.284,-3.2859,-3.2864,-3.2869,-3.2879,-3.2715,-3.2873,-3.2872,-3.2872,-3.2871,-3.2871,0,-3.3118,-3.3098,-3.3106,-3.3094,-3.31,-3.305,-3.3037,-3.3046,-3.3062,-3.3046,-3.3049,-3.3061,-3.3068,-3.3032,-3.3033,-3.305,-3.3027,-3.3053,-3.305,-3.3047,-3.291,-3.2898,-3.3072,-3.3072,-3.3072,-3.3072,-3.3072,-3.3072,-3.3209,-3.3247,-3.3218,-3.3249,-3.3229,-3.3244,-3.3241,-3.3234,-3.3221,-3.3237,-3.3242,-3.3218,-3.3194,-3.3193,-3.3197,-3.3186,-3.3189,-3.3223,-3.3204,-3.3077,-3.3057,-3.3038,-3.3026,-3.3225,-3.3225,-3.334,-3.3341,-3.3342]},{"header":{"parameterUnit":"m.s-1","parameterCategory":1,"la1":30.2991,"la2":30.254,"lo1":-89.0895,"lo2":-89.0444,"dy":0.0017,"dx":0.0017,"nx":28,"ny":28,"refTime":"2023-10-11T09:00:00:Z","depth":0,"parameterNumber":3,"parameterNumberName":"V-component_of_WINDS"},"data":[0,0,0,0,0,0,0,0,0,0,0,0,0,0,0,0,0,0,0,0,0,0,0,0,0,0,0,0,0,0,0,0,0,0,0,0,0,0,0,0,0,0,0,0,0,0,0,0,0,0,0,0,0,0,0,0,0,0,-0.5836,-0.5837,0,-0.5951,-0.5952,-0.5953,-0.6014,-0.6014,-0.6014,-0.6014,-0.6133,-0.6136,-0.6139,0,0,0,0,0,0,0,0,0,0,0,0,0,-0.5671,-0.5673,-0.5836,-0.5837,-0.5839,-0.595,-0.5952,-0.5953,-0.6014,-0.6014,-0.6014,-0.6014,-0.6132,-0.6135,-0.6139,0,0,0,0,0,0,0,0,0,0,0,0,0,-0.5759,-0.5674,-0.5836,-0.5882,-0.5888,-0.595,-0.5952,-0.5954,-0.6014,-0.6014,-0.6014,-0.6014,-0.613,-0.6135,-0.6139,-0.6164,0,0,-0.6153,-0.6155,0,0,0,0,0,0,0,0,-0.5754,-0.5765,-0.5874,-0.5879,-0.5885,-0.5968,-0.5937,-0.6024,-0.6014,-0.5966,-0.6014,-0.6014,-0.6078,-0.6087,-0.6108,-0.617,-0.6175,-0.6154,-0.6156,-0.6158,-0.616,0,0,0,0,0,0,0,-0.5748,-0.5761,-0.5881,-0.5876,-0.5883,-0.5898,-0.5911,-0.5954,-0.602,-0.597,-0.5975,-0.5988,-0.6081,-0.6103,-0.6111,-0.6177,-0.6154,-0.6158,-0.616,-0.6162,-0.6264,-0.6264,0,0,0,0,0,0,-0.5734,-0.5755,-0.5878,-0.5885,-0.5819,-0.5901,-0.5915,-0.5941,-0.6019,-0.6031,-0.5987,-0.599,-0.6095,-0.6106,-0.6115,-0.6149,-0.6158,-0.6163,-0.6165,-0.6264,-0.6264,-0.6264,0,0,0,0,0,0,-0.573,-0.5745,-0.5873,-0.5821,-0.5839,-0.5903,-0.5933,-0.5944,-0.5966,-0.6032,-0.6044,-0.5998,-0.6096,-0.6109,-0.6151,-0.6154,-0.6165,-0.6169,-0.6264,-0.6264,-0.6264,-0.6217,0,0,0,0,0,0,-0.5725,-0.5743,-0.5753,-0.5821,-0.5841,-0.5907,-0.5933,-0.5946,-0.5974,-0.5978,-0.6045,-0.6057,-0.6097,-0.6144,-0.6156,-0.6161,-0.6172,-0.6264,-0.6264,-0.6264,-0.6219,-0.6216,-0.6213,0,0,0,0,0,-0.5719,-0.5736,-0.5753,-0.5768,-0.5855,-0.5907,-0.5919,-0.5964,-0.5974,-0.5984,-0.6027,-0.6055,-0.6152,-0.6148,-0.6162,-0.6168,-0.6264,-0.6264,-0.6264,-0.622,-0.6216,-0.6213,0,0,0,0,0,0,-0.5667,-0.5745,-0.5766,-0.5805,-0.5848,-0.5917,-0.5932,-0.5959,-0.6001,-0.6004,-0.6059,-0.6074,-0.6111,-0.6144,-0.6138,-0.6196,-0.6211,-0.6214,-0.6173,-0.617,-0.6167,-0.6158,-0.6176,0,0,0,0,0,-0.5659,-0.5695,-0.5762,-0.5789,-0.581,-0.5867,-0.5891,-0.5923,-0.5971,-0.599,-0.6035,-0.6081,-0.6122,-0.6148,-0.6189,-0.6224,-0.6239,-0.6235,-0.6232,-0.6229,-0.6231,-0.6251,-0.625,-0.6264,-0.6264,-0.6264,0,0,-0.5645,-0.5693,-0.5711,-0.578,-0.5818,-0.5853,-0.5882,-0.5919,-0.5945,-0.5995,-0.6038,-0.6073,-0.6128,-0.6166,-0.6185,-0.6195,-0.623,-0.6229,-0.6226,-0.623,-0.6251,-0.625,-0.6248,-0.6264,-0.6264,-0.6264,0,0,-0.5637,-0.5676,-0.5704,-0.5741,-0.5797,-0.5835,-0.5841,-0.5906,-0.593,-0.5974,-0.6012,-0.6045,-0.6114,-0.6151,-0.6179,-0.6184,-0.6211,-0.6196,-0.618,-0.62,-0.6198,-0.6198,-0.6199,-0.6199,-0.6197,-0.6197,-0.6197,0,-0.5612,-0.5666,-0.5714,-0.5748,-0.5777,-0.5823,-0.5851,-0.5885,-0.5952,-0.5971,-0.598,-0.6068,-0.6108,-0.6155,-0.6156,-0.6178,-0.6187,-0.6189,-0.6195,-0.6194,-0.6195,-0.6196,-0.6197,-0.6195,-0.6195,-0.6196,-0.6196,0,-0.5633,-0.567,-0.5685,-0.5748,-0.5779,-0.5809,-0.5862,-0.5887,-0.5915,-0.5952,-0.5995,-0.6045,-0.6097,-0.611,-0.6139,-0.6162,-0.6166,-0.6184,-0.62,-0.619,-0.6193,-0.6194,-0.6192,-0.6193,-0.6193,-0.6194,0,0,-0.5595,-0.5684,-0.5688,-0.5717,-0.5782,-0.5812,-0.5845,-0.5895,-0.5915,-0.596,-0.5988,-0.6046,-0.6063,-0.6095,-0.6128,-0.6144,-0.6144,-0.6161,-0.6163,-0.6156,-0.6172,-0.6158,-0.6158,-0.6163,-0.6163,-0.6163,-0.6167,0,-0.5596,-0.5656,-0.57,-0.5743,-0.5778,-0.5822,-0.585,-0.5893,-0.5928,-0.5962,-0.6001,-0.6041,-0.6061,-0.608,-0.6098,-0.614,-0.6148,-0.6141,-0.619,-0.6191,-0.6174,-0.6159,-0.6144,-0.6146,-0.6169,-0.6169,-0.6169,0,-0.5605,-0.5648,-0.5694,-0.5755,-0.5771,-0.5796,-0.5845,-0.5878,-0.5927,-0.5951,-0.5986,-0.602,-0.6056,-0.6068,-0.6119,-0.6113,-0.6135,-0.6159,-0.616,-0.6166,-0.6179,-0.6165,-0.6148,-0.6147,-0.6171,-0.6171,-0.6171,0,-0.5573,-0.5641,-0.5678,-0.5701,-0.5774,-0.579,-0.5821,-0.587,-0.5897,-0.5941,-0.5959,-0.6005,-0.6031,-0.6066,-0.6112,-0.6117,-0.6157,-0.6174,-0.6178,-0.6177,-0.6185,-0.6184,-0.6171,-0.62,-0.62,-0.62,-0.62,0,-0.5569,-0.5596,-0.5664,-0.5686,-0.5718,-0.5767,-0.5797,-0.5831,-0.5875,-0.5905,-0.5946,-0.5974,-0.6032,-0.6066,-0.6102,-0.6138,-0.615,-0.617,-0.6179,-0.6166,-0.6163,-0.6182,-0.6183,-0.62,-0.62,-0.62,-0.62,0,-0.5538,-0.5585,-0.5627,-0.5692,-0.5709,-0.5728,-0.5784,-0.5807,-0.5844,-0.5881,-0.5893,-0.5951,-0.5993,-0.6042,-0.6101,-0.6125,-0.6158,-0.6172,-0.6141,-0.6146,-0.6147,-0.6146,-0.6146,-0.6148,-0.6175,-0.6175,-0.6174,0,-0.5532,-0.5553,-0.562,-0.5643,-0.5672,-0.5708,-0.5736,-0.5786,-0.5813,-0.587,-0.5887,-0.5932,-0.5971,-0.6037,-0.6085,-0.613,-0.6144,-0.6141,-0.6151,-0.6137,-0.6144,-0.6142,-0.6144,-0.6138,-0.6137,-0.6137,-0.6136,0,-0.5517,-0.5539,-0.5577,-0.5623,-0.5654,-0.5693,-0.5734,-0.575,-0.5808,-0.5836,-0.588,-0.591,-0.5969,-0.6014,-0.6065,-0.6097,-0.6126,-0.6133,-0.6136,-0.6123,-0.6104,-0.6114,-0.6132,-0.6133,-0.6133,-0.6133,-0.6133,-0.6134,-0.5498,-0.5519,-0.5569,-0.561,-0.5645,-0.5682,-0.5707,-0.5746,-0.5783,-0.5835,-0.5862,-0.5905,-0.5954,-0.6025,-0.6056,-0.609,-0.61,-0.6105,-0.6106,-0.6107,-0.6103,-0.6098,-0.61,-0.61,-0.61,-0.61,-0.6101,0,-0.5485,-0.5519,-0.5556,-0.5611,-0.5643,-0.5667,-0.5713,-0.5738,-0.5775,-0.5818,-0.5855,-0.5905,-0.5948,-0.5998,-0.6045,-0.6062,-0.6077,-0.6073,-0.6072,-0.6079,-0.6092,-0.6084,-0.606,-0.606,-0.606,-0.606,-0.606,-0.606,-0.5482,-0.5518,-0.5546,-0.56,-0.5634,-0.5676,-0.57,-0.5733,-0.5768,-0.5821,-0.5857,-0.5889,-0.5935,-0.5985,-0.6026,-0.604,-0.6055,-0.6046,-0.6064,-0.6075,-0.6078,-0.6081,-0.6074,-0.6049,-0.6049,-0.6048,-0.6048,-0.6048]}]]